| time (UTC) | temp C | wind direction | speed KPH | gust KPH | rain 1hr cm | rain 24hr cm | rain mn cm | humidity % | barometer mb |
| 20260504015220 | 16 | 0 | 3.2 | 0.0 | 0.00 | 0.00 | 0.00 | 72 | |
| 20260504014150 | 16 | 0 | 1.6 | 0.0 | 0.00 | 0.00 | 0.00 | 73 | |
| 20260504013150 | 16 | 0 | 0.0 | 0.0 | 0.00 | 0.00 | 0.00 | 74 | |
| 20260504012150 | 16 | 0 | 3.2 | 0.0 | 0.00 | 0.00 | 0.00 | 73 | |
| 20260504011120 | 16 | 0 | 4.8 | 0.0 | 0.00 | 0.00 | 0.00 | 73 | |
| 20260504010120 | 16 | 0 | 4.8 | 0.0 | 0.00 | 0.00 | 0.00 | 73 | |
| 20260504005120 | 16 | 0 | 4.8 | 0.0 | 0.00 | 0.00 | 0.00 | 73 | |
| 20260504004120 | 16 | 0 | 6.4 | 0.0 | 0.00 | 0.00 | 0.00 | 75 | |
| 20260504003120 | 16 | 0 | 6.4 | 0.0 | 0.00 | 0.00 | 0.00 | 75 | |
| 20260504002050 | 16 | 0 | 11.3 | 0.0 | 0.00 | 0.00 | 0.00 | 73 | |
| 20260504001050 | 17 | 0 | 4.8 | 0.0 | 0.00 | 0.00 | 0.00 | 72 | |
| 20260504000020 | 17 | 0 | 0.0 | 0.0 | 0.00 | 0.00 | 0.00 | 72 | |
| 20260503234950 | 17 | 0 | 0.0 | 0.0 | 0.00 | 0.00 | 0.00 | 72 | |
| 20260503233920 | 16 | 0 | 0.0 | 0.0 | 0.00 | 0.00 | 0.00 | 72 | |
| 20260503232850 | 16 | 0 | 3.2 | 0.0 | 0.00 | 0.00 | 0.00 | 72 | |
| 20260503231820 | 16 | 0 | 3.2 | 0.0 | 0.00 | 0.00 | 0.00 | 72 | |
| 20260503230820 | 17 | 0 | 4.8 | 0.0 | 0.00 | 0.00 | 0.00 | 71 | |
| 20260503225750 | 17 | 0 | 1.6 | 0.0 | 0.00 | 0.00 | 0.00 | 70 | |
| 20260503224720 | 17 | 0 | 1.6 | 0.0 | 0.00 | 0.00 | 0.00 | 72 | |
| 20260503223650 | 16 | 0 | 0.0 | 0.0 | 0.00 | 0.00 | 0.00 | 72 | |
| 20260503222620 | 16 | 0 | 4.8 | 0.0 | 0.00 | 0.00 | 0.00 | 73 | |
| 20260503221620 | 16 | 0 | 4.8 | 0.0 | 0.00 | 0.00 | 0.00 | 73 | |
| 20260503220550 | 16 | 0 | 3.2 | 0.0 | 0.00 | 0.00 | 0.00 | 73 | |
| 20260503215520 | 15 | 0 | 3.2 | 0.0 | 0.00 | 0.00 | 0.00 | 74 | |
| 20260503214450 | 15 | 0 | 3.2 | 0.0 | 0.00 | 0.00 | 0.00 | 75 | |
| 20260503213420 | 15 | 0 | 9.7 | 0.0 | 0.00 | 0.00 | 0.00 | 75 | |
| 20260503212420 | 15 | 0 | 9.7 | 0.0 | 0.00 | 0.00 | 0.00 | 75 | |
| 20260503211350 | 16 | 0 | 3.2 | 0.0 | 0.00 | 0.00 | 0.00 | 74 | |
| 20260503210350 | 15 | 0 | 4.8 | 0.0 | 0.00 | 0.00 | 0.00 | 74 | |
| 20260503205350 | 16 | 0 | 1.6 | 0.0 | 0.00 | 0.00 | 0.00 | 74 | |
| 20260503204350 | 16 | 0 | 3.2 | 0.0 | 0.00 | 0.00 | 0.00 | 73 | |
| 20260503203320 | 17 | 0 | 3.2 | 0.0 | 0.00 | 0.00 | 0.00 | 72 | |
| 20260503202250 | 17 | 0 | 9.7 | 0.0 | 0.00 | 0.00 | 0.00 | 72 | |
| 20260503201220 | 17 | 0 | 4.8 | 0.0 | 0.00 | 0.00 | 0.00 | 73 | |
| 20260503200150 | 17 | 0 | 9.7 | 0.0 | 0.00 | 0.00 | 0.00 | 73 | |
| 20260503195150 | 17 | 0 | 11.3 | 0.0 | 0.00 | 0.00 | 0.00 | 73 | |
| 20260503194120 | 16 | 0 | 6.4 | 0.0 | 0.00 | 0.00 | 0.00 | 73 | |
| 20260503193120 | 15 | 0 | 8.0 | 0.0 | 0.00 | 0.00 | 0.00 | 78 | |
| 20260503192050 | 15 | 0 | 6.4 | 0.0 | 0.00 | 0.00 | 0.00 | 77 | |
| 20260503191050 | 16 | 0 | 8.0 | 0.0 | 0.00 | 0.00 | 0.00 | 76 | |
| 20260503190020 | 16 | 0 | 14.5 | 0.0 | 0.00 | 0.00 | 0.00 | 75 | |
| 20260503184950 | 16 | 0 | 4.8 | 0.0 | 0.00 | 0.00 | 0.00 | 78 | |
| 20260503183920 | 16 | 0 | 8.0 | 0.0 | 0.00 | 0.00 | 0.00 | 77 | |
| 20260503182850 | 15 | 0 | 3.2 | 0.0 | 0.00 | 0.00 | 0.00 | 81 | |
| 20260503181850 | 15 | 0 | 4.8 | 0.0 | 0.00 | 0.00 | 0.00 | 81 | |
| 20260503180820 | 15 | 0 | 3.2 | 0.0 | 0.00 | 0.00 | 0.00 | 82 | |
| 20260503175750 | 14 | 0 | 11.3 | 0.0 | 0.00 | 0.00 | 0.00 | 86 | |
| 20260503174720 | 13 | 0 | 4.8 | 0.0 | 0.00 | 0.00 | 0.00 | 91 | |
| 20260503173650 | 12 | 0 | 1.6 | 0.0 | 0.00 | 0.00 | 0.00 | 93 | |
| 20260503172620 | 12 | 0 | 4.8 | 0.0 | 0.00 | 0.00 | 0.00 | 91 | |
| 20260503171550 | 13 | 0 | 1.6 | 0.0 | 0.00 | 0.00 | 0.00 | 83 | |
| 20260503170520 | 13 | 0 | 6.4 | 0.0 | 0.00 | 0.00 | 0.00 | 82 | |
| 20260503130620 | 10 | 0 | 1.6 | 0.0 | 0.00 | 0.00 | 0.00 | 98 | |
| 20260503081350 | 12 | 0 | 0.0 | 0.0 | 0.00 | 0.00 | 0.00 | 97 | |
| 20260503080712 | 12 | 0 | 0.0 | 0.0 | 0.00 | 0.00 | 0.00 | 97 | |
| 20260503080350 | 12 | 0 | 0.0 | 0.0 | 0.00 | 0.00 | 0.00 | 97 | |
| 20260503072250 | 12 | 0 | 0.0 | 0.0 | 0.00 | 0.00 | 0.00 | 94 | |
| 20260503071250 | 12 | 0 | 0.0 | 0.0 | 0.00 | 0.00 | 0.00 | 94 | |
| 20260503070220 | 12 | 0 | 0.0 | 0.0 | 0.00 | 0.00 | 0.00 | 93 | |
| 20260503054850 | 14 | 0 | 0.0 | 0.0 | 0.00 | 0.00 | 0.00 | 88 | |
| 20260503053850 | 14 | 0 | 0.0 | 0.0 | 0.00 | 0.00 | 0.00 | 87 | |
| 20260503052820 | 15 | 0 | 0.0 | 0.0 | 0.00 | 0.00 | 0.00 | 87 | |
| 20260503051750 | 15 | 0 | 0.0 | 0.0 | 0.00 | 0.00 | 0.00 | 87 | |
| 20260503050720 | 15 | 0 | 0.0 | 0.0 | 0.00 | 0.00 | 0.00 | 86 | |
| 20260503045650 | 15 | 0 | 0.0 | 0.0 | 0.00 | 0.00 | 0.00 | 85 | |
| 20260503044620 | 15 | 0 | 0.0 | 0.0 | 0.00 | 0.00 | 0.00 | 84 | |
| 20260503043550 | 16 | 0 | 0.0 | 0.0 | 0.00 | 0.00 | 0.00 | 82 | |
| 20260503042520 | 16 | 0 | 0.0 | 0.0 | 0.00 | 0.00 | 0.00 | 81 | |
| 20260503041450 | 16 | 0 | 0.0 | 0.0 | 0.00 | 0.00 | 0.00 | 81 | |
| 20260503040606 | 16 | 0 | 0.0 | 0.0 | 0.00 | 0.00 | 0.00 | 79 | |
| 20260503040420 | 16 | 0 | 0.0 | 0.0 | 0.00 | 0.00 | 0.00 | 79 | |
| 20260503035350 | 17 | 0 | 0.0 | 0.0 | 0.00 | 0.00 | 0.00 | 78 | |
| 20260503034320 | 17 | 0 | 0.0 | 0.0 | 0.00 | 0.00 | 0.00 | 77 | |
| 20260503033250 | 17 | 0 | 0.0 | 0.0 | 0.00 | 0.00 | 0.00 | 76 | |
| 20260503032220 | 18 | 0 | 0.0 | 0.0 | 0.00 | 0.00 | 0.00 | 74 | |
| 20260503031150 | 18 | 0 | 0.0 | 0.0 | 0.00 | 0.00 | 0.00 | 73 | |
| 20260503030120 | 19 | 0 | 0.0 | 0.0 | 0.00 | 0.00 | 0.00 | 74 | |
| 20260503025050 | 19 | 0 | 3.2 | 0.0 | 0.00 | 0.00 | 0.00 | 71 | |
| 20260503024020 | 20 | 0 | 1.6 | 0.0 | 0.00 | 0.00 | 0.00 | 68 | |
| 20260503023125 | 20 | 0 | 1.6 | 0.0 | 0.00 | 0.00 | 0.00 | 67 | |
| 20260503023020 | 20 | 0 | 1.6 | 0.0 | 0.00 | 0.00 | 0.00 | 67 | |
| 20260503021950 | 21 | 0 | 3.2 | 0.0 | 0.00 | 0.00 | 0.00 | 65 | |
| 20260503020920 | 21 | 0 | 0.0 | 0.0 | 0.00 | 0.00 | 0.00 | 64 |